Weather History for Targu Mures, Romania

Change the Weather History Date:

Saturday, March 30, 2013

  Actual Average Record
Temperature  
Mean Temperature 50 °F -  
Max Temperature 60 °F 58 °F 75 °F (2009)
Min Temperature 41 °F 38 °F 24 °F (2002)
Degree Days  
Heating Degree Days 14    
Moisture  
Dew Point 43 °F    
Average Humidity 82    
Maximum Humidity 93    
Minimum Humidity 59    
Precipitation  
Precipitation 0.00 in - - ()
Sea Level Pressure  
Sea Level Pressure 29.72 in    
Wind  
Wind Speed 5 mph ()    
Max Wind Speed 9 mph    
Max Gust Speed -    
Visibility 6.1 miles    
Events Rain    
Averages and records for this station are not official NWS values.
T = Trace of Precipitation, MM = Missing Value Source: Averaged Metar Reports

Daily Weather History Graph

Daily Weather History Graph

Search for Another Location

Airport:

Trip Planner

Search our weather history database for the weather conditions in past years. The results will help you decide how hot, cold, wet, or windy it might be!

Date:

Astronomy

Mar. 30, 2013 Rise Set
Actual Time 6:05 AM EET 6:48 PM EET
Civil Twilight 5:35 AM EET 7:18 PM EET
Nautical Twilight 4:59 AM EET 7:55 PM EET
Astronomical Twilight 4:21 AM EET 8:33 PM EET
Moon 10:48 PM EET (3/30) 7:33 AM EET (3/30)
Length of Visible Light 13h 43m
Length of Day
12h 42m
Waning Gibbous, 88% of the Moon is Illuminated
Mar 30
Waning Gibbous
Apr 3
Last Quarter
Apr 10
New
Apr 18
First Quarter
Apr 25
Full

Hourly Weather History & Observations

Time (EET) Temp. Windchill Dew Point Humidity Pressure Visibility Wind Dir Wind Speed Gust Speed Precip Events Conditions
12:00 AM 41.0 °F 38.0 °F 39.2 °F 93% 29.80 in 6.2 mi East 4.6 mph - N/A   Mostly Cloudy
1:00 AM 41.0 °F 35.2 °F 37.4 °F 87% 29.80 in 6.2 mi East 9.2 mph - N/A   Mostly Cloudy
2:00 AM 42.8 °F 38.6 °F 35.6 °F 76% 29.77 in 6.2 mi East 6.9 mph - N/A   Mostly Cloudy
3:00 AM 41.0 °F 36.4 °F 37.4 °F 87% 29.77 in 6.2 mi East 6.9 mph - N/A   Mostly Cloudy
4:00 AM 41.0 °F 36.4 °F 37.4 °F 87% 29.74 in 6.2 mi ENE 6.9 mph - N/A Rain Light Rain Showers
5:00 AM 41.0 °F 38.0 °F 39.2 °F 93% 29.74 in 6.2 mi East 4.6 mph - N/A   Mostly Cloudy
5:30 AM 42.8 °F 40.1 °F 37.4 °F 81% 29.74 in 6.2 mi NE 4.6 mph - N/A   Mostly Cloudy
6:00 AM 41.0 °F 36.4 °F 39.2 °F 93% 29.74 in 6.2 mi East 6.9 mph - N/A Rain Light Rain
6:30 AM 41.0 °F 38.0 °F 39.2 °F 93% 29.74 in 6.2 mi East 4.6 mph - N/A   Mostly Cloudy
7:00 AM 42.8 °F 40.1 °F 39.2 °F 87% 29.74 in 6.2 mi ENE 4.6 mph - N/A   Mostly Cloudy
7:30 AM 42.8 °F 40.1 °F 39.2 °F 87% 29.74 in 6.2 mi ENE 4.6 mph - N/A   Mostly Cloudy
8:00 AM 42.8 °F 38.6 °F 41.0 °F 93% 29.74 in 6.2 mi ENE 6.9 mph - N/A Rain Light Rain
8:30 AM 44.6 °F 40.7 °F 41.0 °F 87% 29.74 in 6.2 mi East 6.9 mph - N/A Rain Light Rain
9:00 AM 44.6 °F 42.2 °F 41.0 °F 87% 29.74 in 6.2 mi East 4.6 mph - N/A Rain Light Rain
9:30 AM 46.4 °F 42.9 °F 42.8 °F 87% 29.74 in 6.2 mi East 6.9 mph - N/A Rain Light Rain
10:00 AM 46.4 °F 42.9 °F 42.8 °F 87% 29.74 in 6.2 mi East 6.9 mph - N/A Rain Light Rain
10:30 AM 46.4 °F 42.9 °F 44.6 °F 93% 29.71 in 6.2 mi East 6.9 mph - N/A Rain Light Rain
11:00 AM 48.2 °F - 44.6 °F 87% 29.71 in 6.2 mi East 6.9 mph - N/A Rain Light Rain
11:30 AM 48.2 °F - 44.6 °F 87% 29.74 in 6.2 mi North 4.6 mph - N/A Rain Light Rain
12:00 PM 50.0 °F - 42.8 °F 76% 29.74 in 6.2 mi NE 4.6 mph - N/A Rain Light Rain
12:30 PM 50.0 °F - 44.6 °F 82% 29.74 in 6.2 mi Variable 2.3 mph - N/A   Mostly Cloudy
1:00 PM 50.0 °F - 44.6 °F 82% 29.74 in 6.2 mi Variable 2.3 mph - N/A   Mostly Cloudy
1:30 PM 50.0 °F - 44.6 °F 82% 29.74 in 6.2 mi Variable 2.3 mph - N/A Rain Light Rain
2:00 PM 51.8 °F - 44.6 °F 76% 29.71 in 6.2 mi Variable 2.3 mph - N/A Rain Light Rain
2:30 PM 53.6 °F - 46.4 °F 77% 29.71 in 6.2 mi East 4.6 mph - N/A   Scattered Clouds
3:00 PM 55.4 °F - 44.6 °F 67% 29.71 in 6.2 mi Variable 2.3 mph - N/A   Scattered Clouds
3:30 PM 57.2 °F - 46.4 °F 67% 29.71 in 6.2 mi Variable 2.3 mph - N/A   Partly Cloudy
4:00 PM 57.2 °F - 48.2 °F 72% 29.71 in 6.2 mi ENE 4.6 mph - N/A   Partly Cloudy
4:30 PM 59.0 °F - 46.4 °F 63% 29.71 in 6.2 mi NE 4.6 mph - N/A   Partly Cloudy
5:00 PM 60.8 °F - 46.4 °F 59% 29.71 in 6.2 mi SW 6.9 mph - N/A   Scattered Clouds
5:30 PM 59.0 °F - 46.4 °F 63% 29.68 in 6.2 mi SW 6.9 mph - N/A   Scattered Clouds
6:00 PM 57.2 °F - 46.4 °F 67% 29.68 in 6.2 mi Variable 2.3 mph - N/A   Scattered Clouds
6:30 PM 55.4 °F - 46.4 °F 72% 29.68 in 6.2 mi Calm Calm - N/A   Scattered Clouds
7:00 PM 51.8 °F - 44.6 °F 76% 29.68 in 6.2 mi South 2.3 mph - N/A   Scattered Clouds
7:30 PM 50.0 °F - 44.6 °F 82% 29.68 in 6.2 mi ENE 4.6 mph - N/A   Scattered Clouds
8:00 PM 46.4 °F 44.3 °F 42.8 °F 87% 29.68 in 6.2 mi ENE 4.6 mph - N/A   Scattered Clouds
8:30 PM 48.2 °F - 44.6 °F 87% 29.68 in 6.2 mi East 4.6 mph - N/A   Scattered Clouds
9:00 PM 50.0 °F - 44.6 °F 82% 29.68 in 6.2 mi ENE 6.9 mph - N/A   Scattered Clouds
10:00 PM 48.2 °F - 46.4 °F 93% 29.68 in 5.0 mi ENE 9.2 mph - N/A Rain Light Rain
11:00 PM 48.2 °F - 46.4 °F 93% 29.68 in 5.0 mi East 6.9 mph - N/A Rain Light Rain Showers